Temperature
20 19 18 19 19 20 19 19 19 19 19 19 18 18 18 18 18 18 18 19 19 19 19 19 19 19 18 18 18 18 17 17 17 17 16 16 16 16 16 15 15 15 15 15
19 19 20 20 20 20 20 19 19 19 19 19 18 18 18 17 18 18 18 18 19 19 19 19 19 19 19 18 18 18 17 17 17 17 16 16 16 16 15 15 15 15 15 15
20 20 20 20 20 20 20 19 19 19 19 19 19 18 17 17 18 18 18 19 19 19 19 19 19 19 18 18 18 18 17 17 17 17 16 16 16 16 15 15 15 15 15 15
20 20 21 20 20 20 19 20 20 20 18 17 18 16 17 17 16 17 17 18 18 19 19 19 19 19 18 18 18 18 17 17 17 16 16 16 16 16 15 15 15 15 14 14
20 20 21 20 21 20 20 20 19 19 18 17 17 17 16 16 17 16 17 18 18 19 19 19 19 18 18 18 18 17 17 17 17 17 16 16 16 16 15 15 15 14 14 14
19 20 21 21 21 21 20 19 18 16 16 17 17 16 16 16 17 17 17 18 18 18 19 19 18 18 18 18 17 17 17 17 17 16 16 16 16 16 15 15 15 14 14 14
19 20 20 21 21 20 19 17 17 17 16 16 17 16 16 17 17 17 17 18 18 18 19 18 18 18 18 17 17 17 17 17 16 16 16 16 16 15 15 15 15 14 14 14
18 18 20 20 20 19 18 18 17 17 16 16 17 16 17 18 18 18 18 18 18 18 18 18 18 18 18 17 17 17 17 16 16 16 16 16 16 15 15 15 15 14 14 14
17 18 19 20 20 19 18 17 17 16 16 16 16 16 17 18 17 17 17 17 18 18 18 18 18 18 17 17 17 17 17 16 16 16 16 16 15 15 15 15 14 14 14 14
17 18 19 19 19 19 18 16 15 15 16 16 16 16 16 18 17 16 16 16 17 18 18 18 18 18 17 17 17 17 16 16 16 16 16 16 15 15 15 14 14 14 14 14
17 17 18 18 19 19 18 17 15 14 15 15 16 16 17 17 17 16 16 17 18 18 18 18 18 17 17 17 17 17 16 16 16 16 16 15 15 15 15 14 14 14 14 14
15 15 16 17 18 18 18 17 15 16 15 14 14 15 17 16 16 16 16 17 18 18 18 18 17 17 17 17 16 16 16 16 16 16 15 15 15 15 14 14 14 14 14 14
15 15 15 16 17 17 17 17 16 14 13 12 14 16 17 16 16 17 17 17 17 18 17 17 17 17 17 17 16 16 16 16 15 15 15 15 15 14 14 14 14 14 14 13
15 14 15 16 16 16 17 17 16 15 14 13 14 15 16 16 16 16 17 17 17 18 17 17 17 17 17 16 16 16 16 15 15 15 15 15 15 14 14 14 14 14 13 13
14 14 15 15 16 16 16 17 16 15 15 14 15 15 16 16 16 16 17 17 17 17 17 17 17 17 17 16 16 16 15 15 15 15 14 14 14 14 14 14 13 13 13 13
13 14 15 15 16 15 16 16 15 15 15 14 15 15 15 16 16 16 17 16 16 17 17 17 17 17 16 16 16 16 15 15 15 14 14 14 14 14 14 13 13 13 13 13
12 13 13 13 14 15 15 15 15 15 15 15 15 15 15 15 15 16 17 17 17 17 17 17 17 17 16 16 16 16 15 15 15 14 14 14 14 13 13 13 13 13 13 13
12 12 11 12 14 15 15 15 15 15 15 14 14 14 14 15 16 17 17 17 17 17 17 17 17 16 16 16 16 15 15 14 14 14 14 13 13 13 13 13 13 13 12 12
11 11 11 11 13 13 14 15 15 15 14 14 13 14 14 15 15 16 17 17 17 17 17 17 17 16 16 16 15 15 15 14 14 14 13 13 13 13 13 13 13 12 12 12
10 10 11 11 13 13 14 15 15 15 14 14 14 13 14 14 13 14 17 17 17 17 17 17 16 16 15 15 15 15 14 14 14 14 13 13 13 13 13 12 12 12 12 12
11 10 10 10 11 12 13 14 15 14 14 15 15 14 14 13 14 16 16 16 16 16 16 16 16 15 15 15 15 14 14 14 14 13 13 13 13 13 12 12 12 12 12 12
11 10 10 10 11 12 13 13 13 13 14 15 15 15 15 15 15 15 15 15 16 16 16 16 15 15 15 15 14 14 14 14 13 13 13 13 12 12 12 12 12 12 11 11
10 10 10 10 11 12 13 13 14 14 14 14 14 14 14 14 14 14 15 15 15 15 15 15 15 15 14 14 14 14 14 13 13 13 13 12 12 12 12 12 12 11 11 11
9 9 9 9 10 11 13 13 14 14 14 14 14 14 14 14 14 14 14 14 14 14 14 14 14 14 14 14 14 13 13 13 13 12 12 12 12 12 12 11 11 11 11 11
9 9 9 9 10 11 12 13 13 13 13 13 13 13 13 13 13 13 13 14 14 14 14 14 14 14 13 13 13 13 13 13 12 12 12 12 12 12 11 11 11 11 11 11
8 8 9 10 11 10 12 13 13 12 12 12 12 13 13 13 13 13 13 13 13 13 13 13 13 13 13 13 13 13 12 12 12 12 12 11 11 11 11 11 11 11 10 10
Wind_Speed
3 4 2 5 5 4 4 3 3 4 2 3 4 6 6 4 4 5 5 5 6 7 5 2 3 3 4 3 4 4 4 4 4 3 2 2 2 1 2 2 3 4 4 5
5 1 5 4 3 3 4 3 3 3 1 2 3 5 5 3 4 6 6 7 7 5 3 2 2 3 4 4 4 4 4 4 4 3 2 2 2 1 1 1 2 3 3 4
4 4 2 3 2 3 3 5 4 3 1 2 2 5 5 3 2 2 3 4 4 6 6 4 3 4 4 4 5 5 5 5 4 4 3 3 3 3 2 2 2 1 2 2
2 3 1 2 2 4 4 4 4 3 2 2 1 3 7 4 3 2 3 3 4 4 4 4 4 4 4 4 4 4 5 4 4 5 5 4 3 2 1 1 0 1 1 2
3 1 1 2 4 5 5 1 3 2 3 1 1 2 7 2 3 5 4 5 5 5 4 4 4 4 3 3 4 4 5 4 4 4 5 5 3 2 1 1 1 1 1 1
3 2 3 4 1 2 3 6 6 5 4 1 3 3 6 4 6 5 4 4 5 4 4 4 3 2 2 2 3 4 4 3 3 4 4 5 4 3 3 1 1 0 0 1
4 4 2 1 2 3 5 5 3 4 3 4 2 2 7 6 6 6 5 5 4 4 4 4 4 3 3 3 3 3 4 3 3 3 3 4 4 4 4 3 3 2 1 1
1 5 3 1 4 4 3 7 6 3 4 4 1 4 6 5 4 3 3 3 4 4 4 4 5 5 4 4 4 4 4 3 3 3 3 3 3 3 2 3 3 3 2 3
5 5 4 2 1 7 5 3 5 5 2 2 5 5 6 2 2 2 3 3 4 4 5 4 4 4 4 4 4 5 5 4 4 4 3 3 3 3 3 2 2 2 2 2
6 4 4 2 4 4 4 8 6 4 3 3 5 4 4 5 3 1 2 3 3 3 3 3 3 4 3 3 3 3 3 4 4 4 3 3 3 3 2 2 2 2 3 2
3 3 4 2 2 3 3 4 5 4 4 5 3 6 5 6 5 5 5 4 4 4 5 4 3 3 3 2 3 3 3 3 3 3 3 2 2 2 2 2 2 2 2 3
2 4 3 5 4 2 3 5 7 4 4 4 4 7 5 4 4 5 5 4 4 4 5 4 4 3 3 3 3 3 3 3 4 4 3 3 2 2 2 2 3 2 3 3
3 4 1 5 4 2 1 3 4 5 4 5 5 7 3 3 2 3 4 4 4 4 4 3 4 4 4 4 4 4 4 4 4 3 3 3 2 2 3 3 2 2 2 2
4 4 5 7 6 3 3 3 4 5 4 5 8 8 8 6 5 4 4 5 5 4 4 4 4 5 5 4 4 4 4 4 4 4 4 4 4 4 3 2 2 2 2 2
4 2 4 5 5 4 5 6 5 7 8 8 8 7 9 8 7 6 5 4 4 5 5 6 6 5 5 4 4 4 4 4 5 5 4 4 3 3 2 1 1 1 2 3
3 2 0 3 3 4 5 7 7 7 6 7 6 8 8 6 4 5 5 5 6 7 7 7 6 6 6 6 6 5 5 4 5 5 5 4 3 2 2 2 1 1 1 1
2 3 2 3 5 4 6 6 7 5 5 6 8 8 5 5 6 7 7 7 8 8 8 8 8 8 8 7 7 6 6 4 4 5 4 4 4 3 3 2 2 2 2 2
5 4 3 1 2 5 7 3 4 4 3 4 4 5 5 7 7 5 5 7 8 7 7 7 7 7 6 5 5 5 4 4 4 4 4 4 4 4 3 3 3 3 2 2
6 6 4 3 3 7 6 3 3 4 4 3 4 6 6 5 4 5 4 5 7 7 7 7 7 6 5 5 5 5 4 4 4 5 5 5 5 4 4 4 4 3 2 2
4 4 4 4 3 6 6 4 2 2 3 4 2 5 4 2 2 6 5 4 6 6 5 4 3 3 4 4 4 6 5 5 6 6 6 5 5 5 6 6 4 3 3 3
3 2 4 5 6 7 6 4 1 3 5 4 3 4 3 4 6 7 6 5 5 4 4 2 3 4 5 5 5 6 6 7 7 5 4 4 5 5 5 4 3 3 3 2
5 5 5 5 5 7 3 2 3 5 3 3 4 4 4 6 6 6 6 5 4 3 2 2 2 3 3 5 7 7 7 7 4 4 4 4 4 4 3 4 3 3 3 3
6 6 6 7 7 4 2 3 3 2 3 4 4 6 5 5 6 6 5 5 4 3 2 2 3 3 3 4 6 7 7 4 4 4 4 4 4 3 4 4 4 3 3 3
4 2 3 4 6 5 5 4 3 2 3 5 5 5 4 5 6 6 5 5 4 3 2 2 2 2 3 4 4 6 4 3 4 5 5 4 4 3 3 3 4 4 4 4
5 3 3 5 6 5 5 4 4 4 5 5 5 4 4 4 5 5 5 5 4 3 2 2 2 3 4 4 4 4 3 4 4 5 4 4 4 4 4 4 5 6 6 7
5 6 6 7 7 5 6 5 4 5 6 6 6 6 5 4 5 5 4 4 3 3 3 2 3 3 4 4 4 4 3 4 4 4 4 4 3 3 3 3 3 5 6 7
Wind_Direction
41 76 186 213 204 188 162 181 238 255 241 174 223 254 267 241 206 213 221 223 225 233 248 220 187 163 146 141 145 152 142 138 126 109 106 95 74 47 42 53 72 92 104 106
49 269 233 204 192 163 166 199 254 289 265 169 247 273 272 237 218 214 213 221 227 234 236 207 183 165 163 162 162 160 158 156 150 134 126 123 118 92 61 37 54 78 102 108
173 245 214 152 171 183 208 197 215 234 7 52 25 319 296 281 257 241 218 213 210 211 213 208 193 184 172 178 180 176 169 163 152 129 109 86 67 49 37 30 26 37 96 108
238 270 171 152 197 172 236 225 191 177 119 291 75 296 293 282 298 275 246 227 217 211 200 198 193 190 193 197 179 164 160 158 154 142 138 136 135 146 202 198 18 25 71 99
252 231 174 208 223 186 219 129 128 129 150 3 358 202 289 314 281 270 253 227 218 207 192 186 190 197 194 178 166 161 156 160 161 153 152 148 144 154 140 98 82 52 44 75
260 262 206 215 215 162 124 75 61 55 77 317 249 184 285 251 239 259 246 224 209 198 189 185 175 153 140 135 145 151 157 170 170 163 158 162 163 157 142 139 145 139 344 356
325 314 293 175 106 56 84 88 33 3 9 259 251 192 254 261 243 228 221 216 197 182 172 165 153 157 163 155 153 153 160 172 175 170 173 175 175 174 176 181 186 190 223 256
228 288 277 216 180 170 152 140 158 206 233 279 303 229 256 280 270 228 198 179 154 162 169 177 177 174 176 171 163 159 168 174 174 176 184 179 178 180 189 193 192 197 212 225
189 257 293 268 196 141 136 159 163 139 171 263 283 284 300 334 20 88 123 132 161 177 179 180 175 176 182 182 182 179 179 177 177 182 185 183 187 190 197 202 201 207 219 221
166 245 296 316 70 40 139 142 106 124 163 261 293 281 261 282 274 246 176 185 197 184 179 177 177 182 186 188 183 174 173 182 184 183 188 183 186 194 195 184 200 219 226 222
141 185 306 8 166 186 112 113 116 124 155 165 260 274 238 241 236 224 221 206 197 188 187 186 190 189 178 163 166 175 179 174 177 182 185 180 188 193 194 207 224 224 223 220
138 135 251 269 271 235 180 168 149 159 215 183 192 265 280 259 244 218 224 219 206 196 192 184 179 174 177 190 192 193 194 189 191 187 178 181 186 186 209 232 237 231 229 222
130 118 45 338 340 358 124 151 146 133 132 164 186 257 302 331 304 237 225 223 215 203 193 184 182 190 200 206 204 204 204 201 192 177 170 176 184 197 217 234 243 238 233 225
119 134 178 206 225 225 242 201 159 140 168 208 221 247 290 301 286 270 244 228 217 210 206 202 208 209 212 213 208 207 211 200 187 175 175 186 198 208 214 224 237 244 231 221
98 173 226 246 251 236 232 232 202 196 200 207 233 235 258 265 256 257 248 230 216 220 220 217 218 218 214 218 218 210 211 202 187 179 189 203 206 203 191 199 239 265 243 233
77 152 181 290 290 269 255 247 227 221 214 221 243 260 259 264 263 258 245 226 223 228 227 226 223 218 215 215 215 212 209 202 184 186 199 202 192 192 193 204 212 236 256 240
119 127 120 273 310 338 270 242 214 208 210 198 221 244 269 269 260 248 238 223 226 231 231 227 226 220 218 216 209 206 205 195 185 192 198 195 187 195 213 214 212 225 240 234
156 137 143 253 354 247 252 257 194 198 245 228 241 271 271 259 266 266 239 227 237 239 236 232 227 224 220 214 207 194 182 184 187 192 199 198 189 201 207 201 213 229 233 228
173 154 152 161 238 275 291 273 192 191 259 251 244 275 286 297 324 310 264 236 238 242 239 233 223 219 209 205 194 175 182 187 194 203 209 208 200 200 202 210 219 228 218 229
97 126 142 158 202 243 254 273 263 145 265 292 258 274 294 21 326 282 290 273 263 261 253 237 214 195 194 200 175 173 192 195 209 214 213 212 205 201 205 212 214 220 211 225
104 118 170 189 222 257 265 286 90 166 252 288 268 265 236 222 243 275 294 291 277 273 268 232 194 201 206 188 171 186 200 212 220 215 209 208 209 209 207 204 205 200 204 212
184 178 191 174 207 250 277 110 166 224 264 290 288 279 255 261 285 299 298 295 295 289 272 219 204 220 213 188 180 195 214 219 211 197 201 206 209 213 205 191 197 194 192 199
205 197 192 194 217 248 241 215 240 227 277 289 290 290 280 280 287 296 299 294 290 283 264 228 210 217 213 197 193 206 224 208 192 193 208 211 206 210 198 192 193 196 199 206
255 178 177 239 256 257 269 269 279 265 275 286 291 292 286 278 283 292 294 293 295 297 272 238 210 216 231 225 217 221 222 199 196 205 215 208 200 211 209 203 199 201 207 215
232 187 206 250 267 287 279 261 281 303 302 305 313 309 291 280 284 282 288 289 288 288 289 256 232 238 244 239 241 242 221 192 205 212 214 212 204 205 216 217 214 213 217 213
210 196 199 234 235 224 261 273 284 295 300 303 313 320 314 287 276 281 287 284 282 281 283 275 254 243 247 245 247 249 223 202 204 215 216 213 213 215 217 225 253 242 235 234
Height
1515 1520 1524 1523 1522 1523 1526 1530 1533 1529 1523 1526 1528 1527 1523 1521 1522 1522 1522 1523 1524 1525 1527 1528 1529 1530 1531 1532 1533 1534 1535 1536 1537 1537 1537 1538 1538 1538 1538 1538 1538 1538 1538 1537
1520 1523 1518 1517 1519 1521 1525 1530 1531 1527 1522 1525 1528 1527 1522 1520 1520 1520 1520 1521 1522 1523 1525 1526 1527 1528 1530 1531 1532 1533 1534 1536 1536 1537 1538 1538 1539 1539 1539 1539 1538 1538 1538 1538
1520 1519 1515 1517 1520 1523 1525 1528 1528 1528 1525 1525 1528 1530 1524 1520 1519 1519 1519 1520 1520 1522 1523 1525 1526 1528 1529 1530 1531 1533 1534 1535 1536 1537 1538 1538 1538 1539 1539 1539 1539 1538 1538 1538
1518 1515 1515 1518 1520 1521 1527 1520 1522 1525 1532 1537 1533 1545 1528 1522 1520 1518 1518 1518 1519 1520 1522 1523 1525 1527 1528 1529 1531 1532 1534 1535 1536 1537 1538 1538 1538 1538 1538 1538 1538 1538 1538 1538
1518 1515 1515 1518 1517 1517 1520 1517 1521 1525 1531 1538 1536 1543 1535 1524 1522 1518 1516 1516 1517 1519 1521 1522 1524 1526 1527 1529 1530 1532 1533 1534 1536 1536 1537 1538 1538 1538 1538 1538 1538 1538 1538 1538
1515 1513 1513 1513 1512 1514 1516 1521 1526 1533 1538 1548 1539 1544 1539 1527 1520 1516 1514 1514 1516 1518 1520 1521 1523 1525 1526 1528 1529 1531 1532 1533 1535 1536 1537 1537 1537 1537 1538 1537 1537 1537 1537 1537
1519 1514 1511 1511 1514 1515 1519 1532 1547 1548 1554 1551 1537 1540 1535 1517 1513 1512 1512 1512 1514 1516 1518 1520 1522 1523 1525 1526 1528 1529 1531 1532 1533 1535 1535 1536 1537 1537 1537 1537 1536 1536 1536 1536
1528 1527 1514 1511 1513 1518 1521 1529 1547 1554 1556 1550 1538 1540 1526 1513 1510 1509 1510 1511 1513 1515 1517 1519 1521 1522 1524 1525 1527 1528 1529 1530 1532 1533 1534 1535 1535 1536 1536 1536 1535 1535 1535 1535
1528 1526 1512 1510 1510 1513 1522 1528 1529 1542 1545 1550 1544 1534 1520 1511 1510 1509 1510 1511 1512 1514 1516 1518 1520 1521 1523 1524 1526 1527 1528 1529 1530 1531 1532 1533 1534 1534 1534 1534 1534 1534 1533 1533
1519 1525 1515 1511 1511 1513 1516 1523 1535 1543 1551 1555 1546 1538 1530 1515 1512 1510 1510 1510 1511 1513 1515 1517 1518 1520 1522 1523 1524 1526 1527 1527 1529 1530 1531 1531 1532 1532 1532 1532 1532 1532 1532 1531
1516 1524 1521 1516 1516 1518 1520 1525 1532 1541 1543 1553 1553 1541 1516 1513 1510 1510 1509 1509 1510 1512 1513 1515 1517 1519 1521 1522 1523 1524 1525 1526 1527 1527 1528 1529 1529 1530 1530 1530 1530 1530 1529 1529
1518 1525 1529 1521 1514 1512 1514 1519 1528 1538 1542 1546 1549 1539 1509 1508 1507 1507 1507 1508 1509 1510 1512 1514 1515 1517 1518 1519 1520 1521 1522 1523 1524 1525 1526 1526 1527 1527 1528 1528 1528 1528 1527 1526
1517 1526 1534 1530 1526 1518 1517 1518 1522 1529 1538 1547 1547 1534 1508 1507 1505 1505 1506 1507 1508 1509 1510 1512 1513 1514 1516 1517 1518 1518 1519 1520 1521 1522 1523 1524 1524 1525 1525 1525 1525 1525 1525 1524
1514 1524 1530 1532 1527 1521 1519 1517 1520 1526 1536 1540 1535 1524 1512 1508 1506 1504 1504 1505 1505 1506 1508 1509 1510 1511 1513 1514 1515 1516 1516 1517 1518 1519 1520 1521 1522 1522 1522 1523 1522 1522 1522 1522
1515 1522 1521 1520 1517 1517 1516 1515 1517 1521 1523 1528 1522 1520 1511 1506 1504 1503 1502 1503 1503 1504 1505 1506 1507 1508 1509 1511 1512 1513 1513 1514 1515 1516 1517 1518 1518 1519 1519 1519 1519 1520 1520 1519
1517 1521 1521 1520 1516 1517 1516 1513 1514 1515 1515 1517 1516 1514 1504 1502 1502 1501 1500 1500 1500 1501 1501 1502 1503 1505 1506 1507 1508 1509 1510 1511 1511 1512 1513 1514 1515 1515 1516 1516 1516 1517 1517 1517
1519 1522 1526 1528 1521 1517 1519 1511 1510 1510 1509 1510 1512 1507 1501 1501 1499 1498 1497 1497 1497 1497 1498 1499 1500 1500 1502 1503 1505 1505 1506 1507 1508 1509 1510 1511 1511 1512 1512 1513 1513 1513 1514 1514
1519 1522 1528 1530 1525 1527 1514 1503 1503 1505 1505 1505 1503 1501 1500 1498 1496 1495 1494 1494 1494 1494 1495 1495 1496 1497 1498 1500 1501 1502 1503 1504 1504 1505 1506 1507 1507 1508 1508 1509 1509 1510 1510 1510
1513 1520 1527 1531 1530 1523 1510 1503 1503 1505 1505 1501 1501 1499 1497 1495 1494 1492 1492 1492 1491 1491 1491 1492 1492 1493 1494 1495 1496 1498 1499 1500 1501 1501 1502 1503 1503 1504 1504 1505 1505 1506 1506 1506
1513 1516 1525 1529 1527 1525 1510 1500 1499 1502 1506 1499 1498 1497 1496 1495 1497 1492 1489 1489 1488 1488 1488 1488 1488 1489 1490 1491 1493 1494 1495 1496 1496 1497 1498 1499 1500 1500 1501 1501 1502 1502 1502 1503
1517 1521 1524 1527 1525 1517 1504 1499 1499 1510 1507 1498 1497 1495 1495 1494 1493 1490 1487 1486 1485 1484 1484 1484 1485 1485 1486 1487 1489 1490 1491 1491 1492 1493 1494 1495 1496 1496 1497 1498 1498 1498 1498 1498
1515 1519 1522 1524 1524 1517 1500 1500 1503 1502 1498 1496 1495 1493 1492 1490 1489 1487 1485 1483 1482 1481 1481 1481 1482 1482 1483 1484 1484 1485 1486 1488 1489 1489 1490 1491 1491 1492 1493 1493 1494 1494 1494 1494
1510 1509 1510 1511 1509 1501 1498 1498 1498 1497 1496 1494 1493 1491 1489 1488 1486 1485 1483 1481 1480 1479 1478 1478 1479 1479 1480 1480 1481 1481 1482 1484 1484 1485 1486 1486 1487 1488 1488 1489 1489 1490 1490 1489
1505 1503 1505 1505 1499 1497 1496 1495 1495 1495 1494 1492 1491 1489 1486 1485 1483 1482 1481 1479 1477 1476 1476 1476 1476 1476 1476 1477 1477 1478 1479 1479 1480 1480 1481 1481 1482 1483 1484 1484 1485 1485 1485 1485
1501 1501 1502 1501 1496 1494 1492 1492 1492 1491 1490 1489 1487 1485 1484 1482 1481 1480 1478 1476 1475 1474 1473 1473 1472 1472 1473 1473 1474 1474 1474 1475 1475 1476 1476 1477 1477 1478 1479 1479 1480 1480 1480 1481
1496 1497 1499 1496 1491 1492 1490 1489 1489 1488 1487 1485 1484 1482 1481 1480 1479 1477 1475 1474 1472 1471 1470 1469 1469 1469 1469 1469 1470 1470 1470 1470 1470 1471 1471 1472 1472 1473 1474 1474 1475 1475 1476 1476